Kezdőlap
METAR-TAF:

METAR-TAF

Repülőterek :

Atlantic, Iowa, Amerikai Egyesült Államok

földrajzi szélesség: 41-24N, földrajzi hosszúság: 095-03W, magasság: 360 m

Jelenlegi meteorológiai megfigyelések

A jelentés 19 perccel ezelõtt készült, 17:55 UTC
Nyugat-északnyugati szél 8 kt
Hőmérséklet 29°C
Páratartalom 62%
Légköri nyomás 1015 hPa
Látótávolság: 16.1 km
Derült ég

METAR: KAIO 131755Z AUTO 29008KT 10SM CLR 29/21 A2997 RMK AO2

Idő: 13:14 (18:14 UTC)


TAF: hiányzik

Meteorológiai megfigyelések és előrejelzések több, mint 4000 repülőtéren (METAR és TAF jelentéseket).

A térképen piros és sárga pontok jelzik az elérhető meteorológiai állomásokat.

Mozgassa az egeret a pont fölött, hogy megjelenjen az állomás neve.

Azután kattintson az időjárási megfigyelések és előrejelzések megtekintéséhez.

A térkép megváltoztatása: kattintson a fekete keresztel jelölt zöld gombra ráközelítéshez, a vonallal jelölt zöld gombra távolításhoz, vagy a zöld nyilakra a szomszédos térképek eléréséhez.


METAR-TAF: